Time,TemperatureF,DewpointF,PressureIn,WindDirection,WindDirectionDegrees,WindSpeedMPH,WindSpeedGustMPH,Humidity,HourlyPrecipIn,Conditions,Clouds,dailyrainin,SoftwareType,DateUTC
2013-03-30 00:02:00,63.0,21.0,-100.00,NW,306,6.0,8.0,20,-99.99,,,-99.99,,2013-03-30 05:02:00,
2013-03-30 00:12:00,63.0,20.0,-100.00,NW,310,7.0,16.0,19,-99.99,,,-99.99,,2013-03-30 05:12:00,
2013-03-30 00:22:00,63.0,19.0,-100.00,NW,315,9.0,11.0,18,-99.99,,,-99.99,,2013-03-30 05:22:00,
2013-03-30 00:32:00,63.0,17.0,-100.00,NW,312,11.0,12.0,17,-99.99,,,-99.99,,2013-03-30 05:32:00,
2013-03-30 00:42:00,61.0,14.0,-100.00,NW,310,11.0,15.0,16,-99.99,,,-99.99,,2013-03-30 05:42:00,
2013-03-30 00:52:00,61.0,13.0,-100.00,NW,309,11.0,12.0,15,-99.99,,,-99.99,,2013-03-30 05:52:00,
2013-03-30 01:02:00,61.0,13.0,-100.00,NW,309,11.0,12.0,15,-99.99,,,-99.99,,2013-03-30 06:02:00,
2013-03-30 01:12:00,61.0,14.0,-100.00,WNW,293,10.0,13.0,16,-99.99,,,-99.99,,2013-03-30 06:12:00,
2013-03-30 01:23:00,61.0,13.0,-100.00,WNW,298,10.0,14.0,15,-99.99,,,-99.99,,2013-03-30 06:23:00,
2013-03-30 01:32:00,61.0,13.0,-100.00,NW,307,9.0,14.0,15,-99.99,,,-99.99,,2013-03-30 06:32:00,
2013-03-30 01:42:00,61.0,14.0,-100.00,NW,308,7.0,10.0,16,-99.99,,,-99.99,,2013-03-30 06:42:00,
2013-03-30 01:52:00,61.0,14.0,-100.00,NW,312,8.0,10.0,16,-99.99,,,-99.99,,2013-03-30 06:52:00,
2013-03-30 02:02:00,61.0,14.0,-100.00,NW,313,9.0,10.0,16,-99.99,,,-99.99,,2013-03-30 07:02:00,
2013-03-30 02:12:00,61.0,14.0,-100.00,NW,305,8.0,9.0,16,-99.99,,,-99.99,,2013-03-30 07:12:00,
2013-03-30 02:22:00,61.0,14.0,-100.00,NW,321,9.0,10.0,16,-99.99,,,-99.99,,2013-03-30 07:22:00,
2013-03-30 02:32:00,61.0,14.0,-100.00,NW,315,9.0,11.0,16,-99.99,,,-99.99,,2013-03-30 07:32:00,
2013-03-30 02:42:00,61.0,14.0,-100.00,NW,315,9.0,11.0,16,-99.99,,,-99.99,,2013-03-30 07:42:00,
2013-03-30 02:52:00,61.0,14.0,-100.00,NW,316,11.0,12.0,16,-99.99,,,-99.99,,2013-03-30 07:52:00,
2013-03-30 03:02:00,61.0,14.0,-100.00,NW,318,12.0,14.0,16,-99.99,,,-99.99,,2013-03-30 08:02:00,
2013-03-30 03:12:00,61.0,14.0,-100.00,NW,321,12.0,14.0,16,-99.99,,,-99.99,,2013-03-30 08:12:00,
2013-03-30 03:22:00,59.0,13.0,-100.00,NW,320,10.0,12.0,16,-99.99,,,-99.99,,2013-03-30 08:22:00,
2013-03-30 03:32:00,59.0,13.0,-100.00,NW,320,10.0,12.0,16,-99.99,,,-99.99,,2013-03-30 08:32:00,
2013-03-30 03:42:00,61.0,14.0,-100.00,NW,319,9.0,10.0,16,-99.99,,,-99.99,,2013-03-30 08:42:00,
2013-03-30 03:52:00,61.0,14.0,-100.00,NW,325,10.0,11.0,16,-99.99,,,-99.99,,2013-03-30 08:52:00,
2013-03-30 04:02:00,61.0,14.0,-100.00,NNW,330,10.0,11.0,16,-99.99,,,-99.99,,2013-03-30 09:02:00,
2013-03-30 04:12:00,61.0,14.0,-100.00,NNW,330,9.0,12.0,16,-99.99,,,-99.99,,2013-03-30 09:12:00,
2013-03-30 04:22:00,61.0,13.0,-100.00,NNW,328,8.0,11.0,15,-99.99,,,-99.99,,2013-03-30 09:22:00,
2013-03-30 04:33:00,61.0,13.0,-100.00,NW,324,8.0,11.0,15,-99.99,,,-99.99,,2013-03-30 09:33:00,
2013-03-30 04:43:00,61.0,13.0,-100.00,NW,324,8.0,11.0,15,-99.99,,,-99.99,,2013-03-30 09:43:00,
2013-03-30 04:53:00,61.0,13.0,-100.00,NW,311,8.0,10.0,15,-99.99,,,-99.99,,2013-03-30 09:53:00,
2013-03-30 05:02:00,61.0,13.0,-100.00,NW,309,7.0,7.0,15,-99.99,,,-99.99,,2013-03-30 10:02:00,
2013-03-30 05:13:00,61.0,13.0,-100.00,NW,322,7.0,17.0,15,-99.99,,,-99.99,,2013-03-30 10:13:00,
2013-03-30 05:23:00,61.0,13.0,-100.00,NNW,329,9.0,11.0,15,-99.99,,,-99.99,,2013-03-30 10:23:00,
2013-03-30 05:33:00,61.0,13.0,-100.00,NNW,337,10.0,12.0,15,-99.99,,,-99.99,,2013-03-30 10:33:00,
2013-03-30 05:42:00,61.0,13.0,-100.00,NNW,338,11.0,12.0,15,-99.99,,,-99.99,,2013-03-30 10:42:00,
2013-03-30 05:52:00,61.0,13.0,-100.00,NNW,333,11.0,12.0,15,-99.99,,,-99.99,,2013-03-30 10:52:00,
2013-03-30 06:03:00,61.0,13.0,-100.00,NNW,333,11.0,13.0,15,-99.99,,,-99.99,,2013-03-30 11:03:00,
2013-03-30 06:12:00,61.0,13.0,-100.00,NNW,334,11.0,12.0,15,-99.99,,,-99.99,,2013-03-30 11:12:00,
2013-03-30 06:22:00,61.0,13.0,-100.00,NNW,335,10.0,11.0,15,-99.99,,,-99.99,,2013-03-30 11:22:00,
2013-03-30 06:33:00,61.0,13.0,-100.00,NNW,338,10.0,12.0,15,-99.99,,,-99.99,,2013-03-30 11:33:00,
2013-03-30 06:42:00,61.0,13.0,-100.00,North,350,12.0,13.0,15,-99.99,,,-99.99,,2013-03-30 11:42:00,
2013-03-30 06:52:00,61.0,13.0,-100.00,North,353,14.0,18.0,15,-99.99,,,-99.99,,2013-03-30 11:52:00,
2013-03-30 07:02:00,61.0,13.0,-100.00,North,354,14.0,18.0,15,-99.99,,,-99.99,,2013-03-30 12:02:00,
2013-03-30 07:12:00,59.0,11.0,-100.00,NNW,348,13.0,17.0,15,-99.99,,,-99.99,,2013-03-30 12:12:00,
2013-03-30 07:22:00,59.0,11.0,-100.00,North,355,12.0,14.0,15,-99.99,,,-99.99,,2013-03-30 12:22:00,
2013-03-30 07:32:00,59.0,13.0,-100.00,North,352,11.0,13.0,16,-99.99,,,-99.99,,2013-03-30 12:32:00,
2013-03-30 07:42:00,59.0,11.0,-100.00,North,351,10.0,12.0,15,-99.99,,,-99.99,,2013-03-30 12:42:00,
2013-03-30 07:52:00,59.0,13.0,-100.00,NNW,344,11.0,12.0,16,-99.99,,,-99.99,,2013-03-30 12:52:00,
2013-03-30 08:02:00,59.0,13.0,-100.00,NNW,339,12.0,12.0,16,-99.99,,,-99.99,,2013-03-30 13:02:00,
2013-03-30 08:12:00,59.0,13.0,-100.00,NNW,336,12.0,13.0,16,-99.99,,,-99.99,,2013-03-30 13:12:00,
2013-03-30 08:22:00,59.0,13.0,-100.00,NNW,331,12.0,13.0,16,-99.99,,,-99.99,,2013-03-30 13:22:00,
2013-03-30 08:32:00,59.0,11.0,-100.00,NW,326,12.0,12.0,15,-99.99,,,-99.99,,2013-03-30 13:32:00,
2013-03-30 08:42:00,61.0,13.0,-100.00,NW,322,11.0,11.0,15,-99.99,,,-99.99,,2013-03-30 13:42:00,
2013-03-30 08:52:00,61.0,13.0,-100.00,NW,322,10.0,11.0,15,-99.99,,,-99.99,,2013-03-30 13:52:00,
2013-03-30 09:02:00,61.0,13.0,-100.00,NW,322,10.0,11.0,15,-99.99,,,-99.99,,2013-03-30 14:02:00,
2013-03-30 09:11:00,61.0,11.0,-100.00,NW,319,10.0,10.0,14,-99.99,,,-99.99,,2013-03-30 14:11:00,
2013-03-30 09:23:00,61.0,11.0,-100.00,NW,311,9.0,13.0,14,-99.99,,,-99.99,,2013-03-30 14:23:00,
2013-03-30 09:32:00,61.0,11.0,-100.00,NW,310,9.0,10.0,14,-99.99,,,-99.99,,2013-03-30 14:32:00,
2013-03-30 09:42:00,61.0,13.0,-100.00,NW,309,9.0,11.0,15,-99.99,,,-99.99,,2013-03-30 14:42:00,
2013-03-30 09:52:00,61.0,13.0,-100.00,NW,309,8.0,10.0,15,-99.99,,,-99.99,,2013-03-30 14:52:00,
2013-03-30 10:02:00,61.0,13.0,-100.00,NW,310,7.0,11.0,15,-99.99,,,-99.99,,2013-03-30 15:02:00,
2013-03-30 10:12:00,63.0,13.0,-100.00,NW,305,9.0,12.0,14,-99.99,,,-99.99,,2013-03-30 15:12:00,
2013-03-30 10:22:00,63.0,11.0,-100.00,NW,312,9.0,14.0,13,-99.99,,,-99.99,,2013-03-30 15:22:00,
2013-03-30 10:33:00,63.0,13.0,-100.00,NW,314,9.0,17.0,14,-99.99,,,-99.99,,2013-03-30 15:33:00,
2013-03-30 10:43:00,64.0,13.0,-100.00,NW,326,12.0,18.0,13,-99.99,,,-99.99,,2013-03-30 15:43:00,
2013-03-30 10:52:00,64.0,13.0,-100.00,NNW,329,12.0,18.0,13,-99.99,,,-99.99,,2013-03-30 15:52:00,
2013-03-30 11:03:00,64.0,13.0,-100.00,NW,323,12.0,19.0,13,-99.99,,,-99.99,,2013-03-30 16:03:00,
2013-03-30 11:13:00,64.0,14.0,-100.00,NW,322,10.0,18.0,14,-99.99,,,-99.99,,2013-03-30 16:13:00,
2013-03-30 11:23:00,64.0,14.0,-100.00,NW,316,15.0,22.0,14,-99.99,,,-99.99,,2013-03-30 16:23:00,
2013-03-30 11:33:00,64.0,13.0,-100.00,NW,325,14.0,20.0,13,-99.99,,,-99.99,,2013-03-30 16:33:00,
2013-03-30 11:43:00,64.0,13.0,-100.00,NNW,331,16.0,25.0,13,-99.99,,,-99.99,,2013-03-30 16:43:00,
2013-03-30 11:52:00,66.0,14.0,-100.00,NW,318,15.0,24.0,13,-99.99,,,-99.99,,2013-03-30 16:52:00,
2013-03-30 12:02:00,66.0,14.0,-100.00,NNW,328,15.0,22.0,13,-99.99,,,-99.99,,2013-03-30 17:02:00,
2013-03-30 12:13:00,66.0,16.0,-100.00,NW,321,13.0,21.0,14,-99.99,,,-99.99,,2013-03-30 17:13:00,
2013-03-30 12:22:00,66.0,16.0,-100.00,NNW,337,13.0,19.0,14,-99.99,,,-99.99,,2013-03-30 17:22:00,
2013-03-30 12:32:00,66.0,16.0,-100.00,NNW,332,13.0,21.0,14,-99.99,,,-99.99,,2013-03-30 17:32:00,
2013-03-30 12:42:00,66.0,16.0,-100.00,NNW,330,15.0,21.0,14,-99.99,,,-99.99,,2013-03-30 17:42:00,
2013-03-30 12:52:00,66.0,16.0,-100.00,NNW,339,16.0,22.0,14,-99.99,,,-99.99,,2013-03-30 17:52:00,
2013-03-30 13:03:00,66.0,16.0,-100.00,NNW,330,14.0,21.0,14,-99.99,,,-99.99,,2013-03-30 18:03:00,
2013-03-30 13:12:00,66.0,16.0,-100.00,NNW,328,18.0,25.0,14,-99.99,,,-99.99,,2013-03-30 18:12:00,
2013-03-30 13:22:00,66.0,16.0,-100.00,NNW,337,15.0,23.0,14,-99.99,,,-99.99,,2013-03-30 18:22:00,
2013-03-30 13:32:00,68.0,17.0,-100.00,NW,322,14.0,24.0,14,-99.99,,,-99.99,,2013-03-30 18:32:00,
2013-03-30 13:42:00,68.0,17.0,-100.00,NNW,335,17.0,25.0,14,-99.99,,,-99.99,,2013-03-30 18:42:00,
2013-03-30 13:53:00,68.0,17.0,-100.00,NNW,331,18.0,24.0,14,-99.99,,,-99.99,,2013-03-30 18:53:00,
2013-03-30 14:03:00,68.0,17.0,-100.00,NW,322,16.0,23.0,14,-99.99,,,-99.99,,2013-03-30 19:03:00,
2013-03-30 14:13:00,68.0,17.0,-100.00,NW,318,15.0,24.0,14,-99.99,,,-99.99,,2013-03-30 19:13:00,
2013-03-30 14:22:00,70.0,17.0,-100.00,NNW,330,12.0,20.0,13,-99.99,,,-99.99,,2013-03-30 19:22:00,
2013-03-30 14:32:00,68.0,17.0,-100.00,NW,307,14.0,23.0,14,-99.99,,,-99.99,,2013-03-30 19:32:00,
2013-03-30 14:42:00,68.0,17.0,-100.00,NW,307,14.0,23.0,14,-99.99,,,-99.99,,2013-03-30 19:42:00,
2013-03-30 14:52:00,68.0,17.0,-100.00,NW,315,8.0,21.0,14,-99.99,,,-99.99,,2013-03-30 19:52:00,
2013-03-30 15:02:00,70.0,17.0,-100.00,NNW,338,15.0,19.0,13,-99.99,,,-99.99,,2013-03-30 20:02:00,
2013-03-30 15:12:00,70.0,18.0,-100.00,WNW,284,11.0,23.0,14,-99.99,,,-99.99,,2013-03-30 20:12:00,
2013-03-30 15:22:00,72.0,18.0,-100.00,West,279,11.0,22.0,13,-99.99,,,-99.99,,2013-03-30 20:22:00,
2013-03-30 15:32:00,70.0,18.0,-100.00,NW,309,15.0,25.0,14,-99.99,,,-99.99,,2013-03-30 20:32:00,
2013-03-30 15:42:00,68.0,17.0,-100.00,NW,317,15.0,24.0,14,-99.99,,,-99.99,,2013-03-30 20:42:00,
2013-03-30 15:52:00,70.0,18.0,-100.00,WNW,292,13.0,23.0,14,-99.99,,,-99.99,,2013-03-30 20:52:00,
2013-03-30 16:02:00,70.0,18.0,-100.00,NW,319,16.0,27.0,14,-99.99,,,-99.99,,2013-03-30 21:02:00,
2013-03-30 16:12:00,70.0,18.0,-100.00,WNW,300,12.0,23.0,14,-99.99,,,-99.99,,2013-03-30 21:12:00,
2013-03-30 16:22:00,70.0,18.0,-100.00,WNW,295,16.0,27.0,14,-99.99,,,-99.99,,2013-03-30 21:22:00,
2013-03-30 16:33:00,70.0,18.0,-100.00,WNW,296,12.0,21.0,14,-99.99,,,-99.99,,2013-03-30 21:33:00,
2013-03-30 16:43:00,70.0,18.0,-100.00,NW,309,13.0,22.0,14,-99.99,,,-99.99,,2013-03-30 21:43:00,
2013-03-30 16:52:00,70.0,18.0,-100.00,WNW,301,12.0,22.0,14,-99.99,,,-99.99,,2013-03-30 21:52:00,
2013-03-30 17:03:00,70.0,18.0,-100.00,West,278,14.0,24.0,14,-99.99,,,-99.99,,2013-03-30 22:03:00,
2013-03-30 17:13:00,70.0,18.0,-100.00,WNW,295,12.0,25.0,14,-99.99,,,-99.99,,2013-03-30 22:13:00,
2013-03-30 17:23:00,70.0,18.0,-100.00,WNW,303,15.0,22.0,14,-99.99,,,-99.99,,2013-03-30 22:23:00,
2013-03-30 17:33:00,68.0,17.0,-100.00,WNW,296,13.0,19.0,14,-99.99,,,-99.99,,2013-03-30 22:33:00,
2013-03-30 17:43:00,70.0,18.0,-100.00,NW,312,13.0,23.0,14,-99.99,,,-99.99,,2013-03-30 22:43:00,
2013-03-30 17:53:00,68.0,17.0,-100.00,NW,317,15.0,21.0,14,-99.99,,,-99.99,,2013-03-30 22:53:00,
2013-03-30 18:02:00,68.0,17.0,-100.00,NW,308,11.0,15.0,14,-99.99,,,-99.99,,2013-03-30 23:02:00,
2013-03-30 18:12:00,68.0,17.0,-100.00,West,276,13.0,22.0,14,-99.99,,,-99.99,,2013-03-30 23:12:00,
2013-03-30 18:22:00,68.0,17.0,-100.00,West,281,12.0,22.0,14,-99.99,,,-99.99,,2013-03-30 23:22:00,
2013-03-30 18:32:00,70.0,17.0,-100.00,West,264,11.0,16.0,13,-99.99,,,-99.99,,2013-03-30 23:32:00,
2013-03-30 18:42:00,70.0,17.0,-100.00,West,269,12.0,18.0,13,-99.99,,,-99.99,,2013-03-30 23:42:00,
2013-03-30 18:52:00,70.0,17.0,-100.00,WNW,294,7.0,13.0,13,-99.99,,,-99.99,,2013-03-30 23:52:00,
2013-03-30 19:02:00,70.0,17.0,-100.00,NNW,337,6.0,11.0,13,-99.99,,,-99.99,,2013-03-31 00:02:00,
2013-03-30 19:12:00,68.0,17.0,-100.00,NW,308,6.0,11.0,14,-99.99,,,-99.99,,2013-03-31 00:12:00,
2013-03-30 19:22:00,68.0,15.0,-100.00,West,277,12.0,20.0,13,-99.99,,,-99.99,,2013-03-31 00:22:00,
2013-03-30 19:32:00,68.0,15.0,-100.00,WNW,289,12.0,18.0,13,-99.99,,,-99.99,,2013-03-31 00:32:00,
2013-03-30 19:42:00,68.0,15.0,-100.00,WNW,283,7.0,14.0,13,-99.99,,,-99.99,,2013-03-31 00:42:00,
2013-03-30 19:52:00,68.0,15.0,-100.00,West,275,6.0,14.0,13,-99.99,,,-99.99,,2013-03-31 00:52:00,
2013-03-30 20:02:00,68.0,17.0,-100.00,WNW,286,6.0,10.0,14,-99.99,,,-99.99,,2013-03-31 01:02:00,
2013-03-30 20:12:00,68.0,17.0,-100.00,WNW,282,7.0,12.0,14,-99.99,,,-99.99,,2013-03-31 01:12:00,
2013-03-30 20:22:00,68.0,17.0,-100.00,West,268,9.0,12.0,14,-99.99,,,-99.99,,2013-03-31 01:22:00,
2013-03-30 20:32:00,66.0,16.0,-100.00,WNW,295,11.0,24.0,14,-99.99,,,-99.99,,2013-03-31 01:32:00,
2013-03-30 20:42:00,66.0,16.0,-100.00,WNW,286,10.0,17.0,14,-99.99,,,-99.99,,2013-03-31 01:42:00,
2013-03-30 20:52:00,66.0,16.0,-100.00,WNW,285,12.0,20.0,14,-99.99,,,-99.99,,2013-03-31 01:52:00,
2013-03-30 21:02:00,66.0,16.0,-100.00,WNW,290,15.0,23.0,14,-99.99,,,-99.99,,2013-03-31 02:02:00,
2013-03-30 21:13:00,66.0,16.0,-100.00,WNW,289,12.0,19.0,14,-99.99,,,-99.99,,2013-03-31 02:13:00,
2013-03-30 21:22:00,66.0,16.0,-100.00,West,280,9.0,15.0,14,-99.99,,,-99.99,,2013-03-31 02:22:00,
2013-03-30 21:32:00,66.0,17.0,-100.00,West,273,10.0,28.0,15,-99.99,,,-99.99,,2013-03-31 02:32:00,
2013-03-30 21:43:00,66.0,17.0,-100.00,West,278,9.0,17.0,15,-99.99,,,-99.99,,2013-03-31 02:43:00,
2013-03-30 21:52:00,66.0,17.0,-100.00,WNW,298,8.0,15.0,15,-99.99,,,-99.99,,2013-03-31 02:52:00,
2013-03-30 22:02:00,66.0,17.0,-100.00,NW,312,8.0,12.0,15,-99.99,,,-99.99,,2013-03-31 03:02:00,
2013-03-30 22:12:00,64.0,16.0,-100.00,NW,318,12.0,17.0,15,-99.99,,,-99.99,,2013-03-31 03:12:00,
2013-03-30 22:22:00,64.0,17.0,-100.00,NW,316,12.0,17.0,16,-99.99,,,-99.99,,2013-03-31 03:22:00,
2013-03-30 22:33:00,64.0,19.0,-100.00,NW,321,12.0,18.0,17,-99.99,,,-99.99,,2013-03-31 03:33:00,
2013-03-30 22:43:00,64.0,19.0,-100.00,NW,323,14.0,18.0,17,-99.99,,,-99.99,,2013-03-31 03:43:00,
2013-03-30 22:53:00,64.0,20.0,-100.00,NNW,334,13.0,15.0,18,-99.99,,,-99.99,,2013-03-31 03:53:00,
2013-03-30 23:02:00,64.0,-99.9,-100.00,NNW,334,13.0,15.0,18,-99.99,,,-99.99,,2013-03-31 04:02:00,
2013-03-30 23:13:00,64.0,21.0,-100.00,North,349,15.0,19.0,19,-99.99,,,-99.99,,2013-03-31 04:13:00,
2013-03-30 23:23:00,64.0,21.0,-100.00,NNW,344,15.0,19.0,19,-99.99,,,-99.99,,2013-03-31 04:23:00,
2013-03-30 23:32:00,64.0,21.0,-100.00,North,351,13.0,17.0,19,-99.99,,,-99.99,,2013-03-31 04:32:00,
2013-03-30 23:42:00,64.0,22.0,-100.00,North,349,13.0,15.0,20,-99.99,,,-99.99,,2013-03-31 04:42:00,
2013-03-30 23:52:00,63.0,21.0,-100.00,North,355,11.0,14.0,20,-99.99,,,-99.99,,2013-03-31 04:52:00,